BM2MWA-13 Weather Reports


Display with metric or nautical units.
time (UTC)temp
F
wind
direction
speed
MPH
gust
MPH
rain 1hr
in
rain 24hr
in
rain mn
in
humidity
%
barometer
mb
20260505013703 68 100 5.0 14.0 0.20 0.87 0.49 93 1012.7
20260505012703 68 100 6.0 14.0 0.18 0.85 0.47 93 1012.5
20260505011703 68 100 5.0 14.0 0.18 0.83 0.45 94 1012.4
20260505010704 68 110 4.0 15.0 0.18 0.81 0.43 93 1012.3
20260505005704 68 90 4.0 15.0 0.16 0.79 0.39 93 1012.5
20260505004703 68 100 5.0 15.0 0.12 0.73 0.33 93 1012.1
20260505003708 67 100 5.0 15.0 0.08 0.61 0.18 93 1012.2
20260505002704 67 70 3.0 15.0 0.10 0.69 0.30 93 1012.4
20260505001705 67 100 5.0 15.0 0.10 0.67 0.28 93 1012.0
20260505000704 67 100 5.0 12.0 0.08 0.65 0.26 93 1012.0
20260504235703 67 100 5.0 12.0 0.08 0.63 0.24 94 1011.9
20260504234703 67 100 6.0 12.0 0.06 0.63 0.22 93 1012.0
20260504233703 67 100 4.0 12.0 0.04 0.61 0.20 94 1012.0
20260504232704 67 120 4.0 12.0 0.06 0.61 0.20 93 1012.1
20260504231704 67 100 5.0 12.0 0.04 0.59 0.18 93 1011.9
20260504230704 67 110 4.0 15.0 0.08 0.61 0.18 92 1011.9
20260504225704 67 100 5.0 15.0 0.06 0.59 0.16 92 1011.8
20260504224703 67 100 4.0 15.0 0.06 0.61 0.16 93 1011.7
20260504223704 67 100 3.0 15.0 0.08 0.63 0.16 92 1011.5
20260504222705 67 100 5.0 15.0 0.08 0.67 0.14 92 1011.5
20260504221704 67 100 4.0 15.0 0.08 0.67 0.14 91 1011.3
20260504220704 66 70 5.0 17.0 0.04 0.67 0.10 93 1011.3
20260504215703 67 90 4.0 17.0 0.06 0.69 0.10 91 1011.2
20260504214704 67 100 5.0 17.0 0.06 0.69 0.10 91 1011.0
20260504213703 67 90 2.0 17.0 0.06 0.69 0.08 89 1011.0
20260504212703 67 100 4.0 17.0 0.04 0.67 0.06 89 1010.9
20260504211704 67 90 5.0 17.0 0.04 0.67 0.06 90 1010.7
20260504210703 67 100 5.0 20.0 0.04 0.67 0.06 89 1010.7
20260504205703 67 90 6.0 20.0 0.02 0.65 0.04 87 1010.7
20260504204703 67 100 6.0 20.0 0.02 0.65 0.04 85 1010.7
20260504203704 67 100 6.0 20.0 0.00 0.63 0.02 85 1010.7
20260504202703 67 100 7.0 20.0 0.00 0.63 0.02 84 1010.6
20260504201703 67 100 6.0 20.0 0.00 0.63 0.02 83 1010.6
20260504200704 67 100 6.0 21.0 0.00 0.63 0.02 83 1010.7
20260504195703 68 100 7.0 21.0 0.00 0.63 0.02 81 1010.7
20260504194703 68 100 7.0 21.0 0.00 0.63 0.02 81 1010.6
20260504193704 67 100 8.0 21.0 0.00 0.63 0.02 81 1010.7
20260504192704 67 90 7.0 21.0 0.00 0.63 0.02 81 1010.6
20260504191703 67 90 8.0 21.0 0.00 0.63 0.02 80 1010.7
20260504190703 67 100 8.0 21.0 0.00 0.63 0.02 81 1010.8
20260504185704 67 100 7.0 21.0 0.00 0.63 0.02 81 1011.0
20260504184703 67 100 8.0 21.0 0.00 0.63 0.02 82 1011.0
20260504183703 67 100 7.0 21.0 0.00 0.63 0.02 81 1011.0
20260504182703 67 100 7.0 21.0 0.00 0.63 0.02 82 1011.1
20260504181703 67 90 7.0 21.0 0.02 0.63 0.02 81 1011.3
20260504180703 67 100 8.0 19.0 0.02 0.63 0.02 81 1011.5
20260504175703 67 100 6.0 19.0 0.02 0.63 0.02 82 1011.7
20260504174704 66 100 7.0 19.0 0.02 0.63 0.02 82 1011.9
20260504173706 66 100 8.0 19.0 0.02 0.63 0.02 82 1011.9
20260504172703 67 100 8.0 19.0 0.02 0.63 0.02 80 1012.2
20260504171705 67 100 8.0 19.0 0.00 0.61 0.00 79 1012.3
20260504170703 67 100 9.0 21.0 0.00 0.61 0.00 80 1012.5
20260504150704 65 110 7.0 17.0 0.00 0.61 0.61 83 1014.7
20260504140703 64 110 6.0 16.0 0.00 0.61 0.61 87 1015.1
20260504130703 63 140 7.0 15.0 0.06 0.61 0.61 86 1015.4
20260504110703 63 140 9.0 21.0 0.16 0.41 0.41 79 1015.4
20260504081704 72 120 7.0 23.0 0.00 0.24 0.24 65 1013.2
20260504080703 72 120 9.0 25.0 0.00 0.24 0.24 66 1013.1
20260504050704 74 110 10.0 22.0 0.00 0.24 0.24 66 1013.9
20260504045704 73 100 9.0 22.0 0.00 0.24 0.24 68 1014.0
20260504044704 74 100 8.0 22.0 0.00 0.24 0.24 67 1014.2
20260504043704 74 110 7.0 22.0 0.00 0.24 0.24 66 1014.3
20260504042704 74 100 8.0 22.0 0.00 0.24 0.24 65 1014.2
20260504041703 74 100 7.0 22.0 0.00 0.24 0.24 69 1014.3
20260504040703 74 100 9.0 16.0 0.00 0.24 0.24 67 1014.4
20260504035703 73 120 6.0 16.0 0.00 0.24 0.24 70 1014.8
20260504034704 73 100 8.0 16.0 0.00 0.24 0.24 69 1014.5
20260504033703 72 130 8.0 16.0 0.00 0.24 0.24 70 1014.7
20260504032704 72 120 8.0 16.0 0.00 0.24 0.24 69 1014.9
20260504031704 72 120 7.0 16.0 0.00 0.24 0.24 69 1015.0
20260504030703 72 130 5.0 14.0 0.00 0.24 0.24 70 1015.0
20260504025703 72 140 3.0 14.0 0.00 0.24 0.24 74 1015.1
20260504024703 70 140 6.0 14.0 0.00 0.24 0.24 73 1015.5
20260504023704 70 140 7.0 14.0 0.00 0.24 0.24 74 1015.4
20260504022703 69 130 6.0 14.0 0.00 0.24 0.24 76 1015.2
20260504021703 68 140 5.0 14.0 0.00 0.24 0.24 77 1015.5
20260504020704 69 130 7.0 15.0 0.00 0.24 0.24 75 1015.7
20260504015703 69 140 5.0 15.0 0.02 0.24 0.24 74 1015.8
20260504014703 68 150 4.0 15.0 0.02 0.24 0.24 78 1015.9